User: anonymous   Login
Location: Unspecified
(0.0000°N, 0.0000°E)
Time: 20:41:26
(UTC+00:00)
Language:

COSMOS 2416 - Orbit

View from above orbital plane
View from above orbital plane
View from above satellite
View from above satellite

Ground track
Ground track

The orbit data is extracted from the following two-line orbital elements,

1 28909U 05048B   17172.72540195 +.00000060 +00000-0 +30681-3 0  9993
2 28909 082.4699 247.8863 0005552 284.5727 075.4744 12.55164703526860
Epoch (UTC): 21 June 2017 17:24:34
Eccentricity: 0.0005552
inclination: 82.4699°
perigee height: 1438 km
apogee height: 1447 km
right ascension of ascending node: 247.8863°
argument of perigee: 284.5727°
revolutions per day: 12.55164703
mean anomaly at epoch: 75.4744°
orbit number at epoch: 52686

The dashed part of the orbit path shows where the satellite is in the earth's shadow,  

DLR